Other Public Products
Issued by NWS Charleston, SC

Current Version | Previous Version | Text Only | Print | Product List | Glossary Off
Versions: 1 2 3 4 5 6 7 8 9 10 11 12 13 14 15 16 17 18 19 20 21 22 23 24 25 26 27 28 29 30 31 32 33 34 35 36 37 38 39 40 41 42 43 44 45 46 47 48 49 50
000 FPUS82 KCHS 210612 OPUCHS TEST...KCHS/KSAV Gateway Observations...TEST National Weather Service Charleston SC 100 AM EST SUN JAN 21 2018 NOTE: "fair" indicates few or no clouds below 12,000 feet with no significant weather and/or obstructions to visibility. SCZ050-WAZ558-NCZ071-TXZ119-213-PAZ071-DCZ001-FLZ074-172-MI076- NYZ176-178-MAZ016-IL014-TNZ027-NJZ106-GAZ044-MD014-210700- ...Gateway Observations for Charleston International... CITY SKY/WX TMP DP RH WIND PRES REMARKS Chas Airport MOCLDY 47 31 53 W5 30.24F 6HR MIN TEMP: 44; 6HR MAX TEMP: 50; Seattle CLOUDY 48 35 60 S22 29.95F 6HR MIN TEMP: 44; 6HR MAX TEMP: 48; 6HR PCP: 0.02; Charlotte FAIR 44 33 65 CALM 30.21F 6HR MIN TEMP: 41; 6HR MAX TEMP: 52; Dallas DFW MOCLDY 65 58 78 S20 29.90F 6HR MIN TEMP: 61; 6HR MAX TEMP: 68; Dallas Love MOCLDY 63 58 83 S13 29.93S 6HR MIN TEMP: 61; 6HR MAX TEMP: 68; Philladelphia FAIR 33 27 78 CALM 30.09S 6HR MIN TEMP: 33; 6HR MAX TEMP: 49; Wash National FAIR 37 31 78 N8 30.11S WCI 31 6HR MIN TEMP: 35; 6HR MAX TEMP: 54; Baltimore FAIR 35 29 78 CALM 30.10R 6HR MIN TEMP: 34; 6HR MAX TEMP: 48; Miami CLOUDY 71 64 78 NE7 30.18F 6HR MIN TEMP: 69; 6HR MAX TEMP: 72; Detroit CLOUDY 35 33 92 SW3 30.06R 6HR MIN TEMP: 31; 6HR MAX TEMP: 35; Newark FAIR 38 28 67 SW6 30.05S WCI 33 6HR MIN TEMP: 37; 6HR MAX TEMP: 47; Laguardia FAIR 43 28 55 SW5 30.04S 6HR MIN TEMP: 43; 6HR MAX TEMP: 48; J F K FAIR 33 28 81 SW6 30.06S WCI 28 6HR MIN TEMP: 32; 6HR MAX TEMP: 47; Boston Logan MOCLDY 41 28 60 W10 29.95F 6HR MIN TEMP: 38; 6HR MAX TEMP: 43; Ft. Lauderdale MOCLDY 70 64 81 E13 30.18S 6HR MIN TEMP: 69; 6HR MAX TEMP: 70; Chicago O`Hare CLOUDY 38 35 89 S3 29.98F 6HR MIN TEMP: 38; 6HR MAX TEMP: 42; Chicago Midway CLOUDY 41 37 86 S6 29.99F 6HR MIN TEMP: 41; 6HR MAX TEMP: 43; Houston Bush CLOUDY 67 65 93 S13G21 30.05R 6HR MIN TEMP: 66; 6HR MAX TEMP: 69; 6HR PCP: TRACE; Houston Hobby MOCLDY 65 65 100 S10 30.05R 6HR MIN TEMP: 64; 6HR MAX TEMP: 66; 6HR PCP: 0.02; Nashville MOCLDY 54 36 50 S10 30.16S 6HR MIN TEMP: 54; 6HR MAX TEMP: 57; Atlanta FAIR 47 38 71 CALM 30.23F 6HR MIN TEMP: 47; 6HR MAX TEMP: 54; $$ GAZ044-118-TXZ119-213-NCZ071-DCZ001-MDZ014-506-PAZ021-071-NJZ106- NYZ176-178-MAZ106-OHZ011-021-055-MIZ076-KYZ091-ILZ014-INZ047- MNZ060-ONZ431-210700- ...Gateway Observations for Savannah International... CITY SKY/WX TMP DP RH WIND PRES REMARKS Savannah Arpt FAIR 49 28 44 CALM 30.26F 6HR MIN TEMP: 46; 6HR MAX TEMP: 54; Atlanta FAIR 47 38 71 CALM 30.23F 6HR MIN TEMP: 47; 6HR MAX TEMP: 54; Charlotte FAIR 44 33 65 CALM 30.21F 6HR MIN TEMP: 41; 6HR MAX TEMP: 52; Dallas DFW MOCLDY 65 58 78 S20 29.90F 6HR MIN TEMP: 61; 6HR MAX TEMP: 68; Houston Bush CLOUDY 67 65 93 S13G21 30.05R 6HR MIN TEMP: 66; 6HR MAX TEMP: 69; 6HR PCP: TRACE; Wash National FAIR 37 31 78 N8 30.11S WCI 31 6HR MIN TEMP: 35; 6HR MAX TEMP: 54; Wash Dulles FAIR 32 28 85 CALM 30.11S 6HR MIN TEMP: 31; 6HR MAX TEMP: 47; Baltimore FAIR 35 29 78 CALM 30.10R 6HR MIN TEMP: 34; 6HR MAX TEMP: 48; Philadelphia FAIR 33 27 78 CALM 30.09S 6HR MIN TEMP: 33; 6HR MAX TEMP: 49; Newark FAIR 38 28 67 SW6 30.05S WCI 33 6HR MIN TEMP: 37; 6HR MAX TEMP: 47; Laguardia FAIR 43 28 55 SW5 30.04S 6HR MIN TEMP: 43; 6HR MAX TEMP: 48; J F K FAIR 33 28 81 SW6 30.06S WCI 28 6HR MIN TEMP: 32; 6HR MAX TEMP: 47; Boston MOCLDY 41 28 60 W10 29.95F 6HR MIN TEMP: 38; 6HR MAX TEMP: 43; Pittsburg CLOUDY 42 33 70 SW6 30.11F 6HR MIN TEMP: 37; 6HR MAX TEMP: 43; Akron CLOUDY 38 31 76 S7 30.08F WCI 33 6HR MIN TEMP: 34; 6HR MAX TEMP: 40; Cleveland CLOUDY 40 34 79 SW3 30.10S 6HR MIN TEMP: 37; 6HR MAX TEMP: 41; Cincinnati CLOUDY 45 44 97 S8 30.09S 6HR MIN TEMP: 43; 6HR MAX TEMP: 46; 6HR PCP: TRACE; Columbus RAIN 38 37 99 CALM 30.11S Detroit CLOUDY 35 33 92 SW3 30.06R 6HR MIN TEMP: 31; 6HR MAX TEMP: 35; Chicago O`Hare CLOUDY 38 35 89 S3 29.98F 6HR MIN TEMP: 38; 6HR MAX TEMP: 42; Minneapolis CLOUDY 34 32 92 CALM 29.95S 6HR MIN TEMP: 33; 6HR MAX TEMP: 40; Indianapolis FOG 40 40 100 CALM 30.07R VSB 1/4 6HR MIN TEMP: 39; 6HR MAX TEMP: 42; 6HR PCP: 0.02; Toronto Canada MOCLDY 32 27 80 CALM 30.02F $$

USA.gov is the U.S. government's official web portal to all federal, state and local government web resources and services.